When you browse on this site, cookies collect data to enhance your experience and personalize the content and advertising you see.
Visit our Privacy Policy to learn more. By continuing to use the site, you agree to this use of cookies and data.
  • In Belgium
  • List of Countries
  • For 7 days
  • Water Temperature
  • Satellite Maps
  • Weather Map
  • Weather Widgets
  • user-avatar
    Login

    Hourly Weather Zagore

    Today, 22 March, Friday

    Time Temperature Precipitation Wind Pressure Humidity
    00:00 -1°C° 0 mm 2 mps 749 mmHg 91%
    01:00 0°C° 0 mm 3 mps 749 mmHg 91%
    02:00 0°C° 0 mm 3 mps 748 mmHg 90%
    03:00 0°C° 0.1 mm 3 mps 747 mmHg 90%
    04:00 -1°C° 0.1 mm 4 mps 746 mmHg 90%
    05:00 -1°C° 0.1 mm 4 mps 745 mmHg 90%
    06:00 -1°C° 1 mm 4 mps 744 mmHg 90%
    07:00 0°C° 1 mm 4 mps 743 mmHg 89%
    08:00 0°C° 1 mm 4 mps 742 mmHg 89%
    09:00 0°C° 0.8 mm 5 mps 742 mmHg 87%
    10:00 +1°C° 0.8 mm 6 mps 742 mmHg 86%
    11:00 0°C° 0.8 mm 7 mps 742 mmHg 84%
    12:00 -1°C° 0.2 mm 7 mps 742 mmHg 81%
    13:00 -1°C° 0.2 mm 7 mps 743 mmHg 78%
    14:00 -2°C° 0.2 mm 7 mps 743 mmHg 76%
    15:00 -2°C° 0 mm 7 mps 744 mmHg 76%
    16:00 -2°C° 0 mm 6 mps 744 mmHg 76%
    17:00 -1°C° 0 mm 5 mps 745 mmHg 76%
    18:00 -1°C° 0 mm 5 mps 745 mmHg 78%
    19:00 -2°C° 0 mm 5 mps 746 mmHg 81%
    20:00 -2°C° 0 mm 5 mps 746 mmHg 83%
    21:00 -2°C° 0 mm 5 mps 747 mmHg 84%
    22:00 -2°C° 0 mm 5 mps 747 mmHg 84%
    23:00 -1°C° 0 mm 5 mps 747 mmHg 84%

    Tomorrow, 23 March, Saturday

    Time Temperature Precipitation Wind Pressure Humidity
    00:00 -1°C° 0.2 mm 5 mps 748 mmHg 85%
    01:00 -1°C° 0.2 mm 5 mps 749 mmHg 87%
    02:00 -1°C° 0.2 mm 5 mps 750 mmHg 88%
    03:00 -1°C° 0 mm 5 mps 751 mmHg 90%
    04:00 -1°C° 0 mm 4 mps 752 mmHg 91%
    05:00 -1°C° 0 mm 4 mps 752 mmHg 92%
    06:00 0°C° 0 mm 3 mps 753 mmHg 92%
    07:00 0°C° 0 mm 3 mps 754 mmHg 93%
    08:00 +1°C° 0 mm 2 mps 754 mmHg 93%
    09:00 +2°C° 0 mm 2 mps 755 mmHg 92%
    10:00 +2°C° 0 mm 2 mps 755 mmHg 91%
    11:00 +3°C° 0 mm 2 mps 755 mmHg 89%
    12:00 +4°C° 0 mm 1 mps 755 mmHg 88%
    13:00 +4°C° 0 mm 1 mps 755 mmHg 88%
    14:00 +4°C° 0 mm 1 mps 755 mmHg 87%
    15:00 +4°C° 0 mm 1 mps 754 mmHg 88%
    16:00 +2°C° 0 mm 0 mps 754 mmHg 88%
    17:00 +2°C° 0 mm 0 mps 754 mmHg 89%
    18:00 +2°C° 0 mm 1 mps 754 mmHg 89%
    19:00 +2°C° 0 mm 1 mps 753 mmHg 89%
    20:00 +1°C° 0 mm 2 mps 753 mmHg 88%
    21:00 +1°C° 0 mm 2 mps 753 mmHg 88%
    22:00 +1°C° 0 mm 2 mps 752 mmHg 88%
    23:00 -1°C° 0 mm 3 mps 751 mmHg 88%

    Day after tomorrow, 24 March, Sunday

    Time Temperature Precipitation Wind Pressure Humidity
    00:00 -1°C° 0 mm 3 mps 751 mmHg 86%
    01:00 -2°C° 0 mm 4 mps 750 mmHg 85%
    02:00 -1°C° 0 mm 4 mps 749 mmHg 84%
    03:00 -1°C° 0.1 mm 4 mps 748 mmHg 85%
    04:00 -1°C° 0.1 mm 4 mps 748 mmHg 86%
    05:00 -1°C° 0.1 mm 4 mps 747 mmHg 87%
    06:00 -1°C° 0.3 mm 4 mps 746 mmHg 88%
    07:00 -1°C° 0.3 mm 4 mps 746 mmHg 89%
    08:00 -1°C° 0.3 mm 4 mps 746 mmHg 90%
    09:00 0°C° 0 mm 4 mps 745 mmHg 88%
    10:00 +2°C° 0 mm 3 mps 745 mmHg 86%
    11:00 +3°C° 0 mm 3 mps 745 mmHg 84%
    12:00 +3°C° 0.3 mm 3 mps 744 mmHg 80%
    13:00 +3°C° 0.3 mm 4 mps 744 mmHg 77%
    14:00 +4°C° 0.3 mm 4 mps 744 mmHg 73%
    15:00 +3°C° 0.2 mm 4 mps 744 mmHg 76%
    16:00 +2°C° 0.2 mm 3 mps 744 mmHg 78%
    17:00 +2°C° 0.2 mm 2 mps 744 mmHg 81%
    18:00 0°C° 0.1 mm 3 mps 744 mmHg 82%
    19:00 0°C° 0.1 mm 3 mps 744 mmHg 83%
    20:00 -1°C° 0.1 mm 3 mps 745 mmHg 84%
    21:00 -2°C° 0 mm 3 mps 745 mmHg 85%
    22:00 -2°C° 0 mm 3 mps 745 mmHg 86%
    23:00 -4°C° 0 mm 3 mps 745 mmHg 87%

    25 March, Monday

    Time Temperature Precipitation Wind Pressure Humidity
    00:00 -4°C° 0 mm 3 mps 745 mmHg 88%
    01:00 -4°C° 0 mm 3 mps 745 mmHg 89%
    02:00 -5°C° 0 mm 3 mps 745 mmHg 90%
    03:00 -5°C° 0 mm 3 mps 745 mmHg 90%
    04:00 -5°C° 0 mm 3 mps 745 mmHg 90%
    05:00 -5°C° 0 mm 3 mps 745 mmHg 89%
    06:00 -4°C° 0 mm 3 mps 745 mmHg 86%
    07:00 -4°C° 0 mm 4 mps 745 mmHg 83%
    08:00 -3°C° 0 mm 4 mps 745 mmHg 80%
    09:00 -2°C° 0.1 mm 4 mps 745 mmHg 77%
    10:00 -2°C° 0.1 mm 4 mps 745 mmHg 73%
    11:00 -1°C° 0.1 mm 4 mps 745 mmHg 70%
    12:00 -1°C° 0 mm 4 mps 745 mmHg 68%
    13:00 0°C° 0 mm 4 mps 745 mmHg 66%
    14:00 +1°C° 0 mm 3 mps 745 mmHg 63%
    15:00 +1°C° 0 mm 3 mps 745 mmHg 66%
    16:00 +2°C° 0 mm 2 mps 745 mmHg 69%
    17:00 +1°C° 0 mm 2 mps 745 mmHg 72%
    18:00 -1°C° 0 mm 2 mps 745 mmHg 76%
    19:00 -1°C° 0 mm 2 mps 745 mmHg 80%
    20:00 -2°C° 0 mm 2 mps 745 mmHg 83%
    21:00 -2°C° 0 mm 2 mps 745 mmHg 84%
    22:00 -2°C° 0 mm 3 mps 745 mmHg 84%
    23:00 -2°C° 0 mm 3 mps 745 mmHg 84%

    26 March, Tuesday

    Time Temperature Precipitation Wind Pressure Humidity
    00:00 -2°C° 0 mm 3 mps 745 mmHg 84%
    01:00 -2°C° 0 mm 3 mps 745 mmHg 83%
    02:00 -3°C° 0 mm 4 mps 745 mmHg 82%
    03:00 -2°C° 0.4 mm 3 mps 745 mmHg 85%
    04:00 -2°C° 0.4 mm 3 mps 745 mmHg 88%
    05:00 -2°C° 0.4 mm 3 mps 745 mmHg 92%
    06:00 -2°C° 0.2 mm 3 mps 746 mmHg 86%
    07:00 -2°C° 0.2 mm 3 mps 746 mmHg 81%
    08:00 -2°C° 0.2 mm 3 mps 747 mmHg 75%
    09:00 -2°C° 0 mm 3 mps 747 mmHg 70%
    10:00 -1°C° 0 mm 3 mps 747 mmHg 64%
    11:00 0°C° 0 mm 3 mps 748 mmHg 59%
    12:00 0°C° 0 mm 3 mps 748 mmHg 56%
    13:00 0°C° 0 mm 3 mps 748 mmHg 54%
    14:00 +1°C° 0 mm 3 mps 748 mmHg 51%
    15:00 +1°C° 0 mm 2 mps 747 mmHg 55%
    16:00 +1°C° 0 mm 2 mps 747 mmHg 60%
    17:00 +1°C° 0 mm 1 mps 747 mmHg 64%
    18:00 -1°C° 0 mm 2 mps 746 mmHg 67%
    19:00 -2°C° 0 mm 2 mps 746 mmHg 69%
    20:00 -2°C° 0 mm 3 mps 746 mmHg 71%
    21:00 -2°C° 0.1 mm 3 mps 745 mmHg 74%
    22:00 -2°C° 0.1 mm 3 mps 744 mmHg 76%
    23:00 -3°C° 0.1 mm 4 mps 743 mmHg 79%

    27 March, Wednesday

    Time Temperature Precipitation Wind Pressure Humidity
    00:00 -3°C° 0.4 mm 4 mps 743 mmHg 81%
    01:00 -2°C° 0.4 mm 3 mps 742 mmHg 83%
    02:00 -2°C° 0.4 mm 3 mps 742 mmHg 86%
    03:00 -4°C° 0.1 mm 3 mps 742 mmHg 88%
    04:00 -4°C° 0.1 mm 3 mps 742 mmHg 90%
    05:00 -4°C° 0.1 mm 2 mps 742 mmHg 92%
    06:00 -4°C° 0.2 mm 3 mps 742 mmHg 87%
    07:00 -4°C° 0.2 mm 3 mps 742 mmHg 82%
    08:00 -2°C° 0.2 mm 3 mps 742 mmHg 78%
    09:00 -3°C° 0.1 mm 4 mps 743 mmHg 75%
    10:00 -2°C° 0.1 mm 4 mps 744 mmHg 73%
    11:00 -2°C° 0.1 mm 4 mps 744 mmHg 70%
    12:00 -1°C° 0.1 mm 4 mps 745 mmHg 71%
    13:00 -1°C° 0.1 mm 4 mps 746 mmHg 71%
    14:00 0°C° 0.1 mm 5 mps 747 mmHg 72%
    15:00 -1°C° 0.1 mm 4 mps 747 mmHg 73%
    16:00 -1°C° 0.1 mm 4 mps 748 mmHg 74%
    17:00 -2°C° 0.1 mm 4 mps 749 mmHg 75%
    18:00 -3°C° 0 mm 4 mps 750 mmHg 79%
    19:00 -2°C° 0 mm 3 mps 751 mmHg 84%
    20:00 -4°C° 0 mm 3 mps 752 mmHg 88%
    21:00 -5°C° 0 mm 3 mps 753 mmHg 89%
    22:00 -5°C° 0 mm 3 mps 753 mmHg 90%
    23:00 -4°C° 0 mm 2 mps 754 mmHg 91%
    Show more